Weather History for Somerville, NJ

Change the Weather History Date:

Monday, June 11, 2012

  Actual Average Record
Temperature  
Mean Temperature 71 °F -  
Max Temperature 79 °F 80 °F 95 °F (1974)
Min Temperature 64 °F 54 °F 38 °F (1980)
Cooling Degree Days 6    
Growing Degree Days 21 (Base 50)    
Moisture  
Dew Point 61 °F    
Average Humidity 73    
Maximum Humidity 93    
Minimum Humidity 55    
Precipitation  
Precipitation 0.00 in - - ()
Sea Level Pressure  
Sea Level Pressure 30.18 in    
Wind  
Wind Speed 3 mph (ESE)    
Max Wind Speed 10 mph    
Max Gust Speed -    
Visibility 9 miles    
Events      
Averages and records for this station are not official NWS values.
T = Trace of Precipitation, MM = Missing Value Source: NWS Daily Summary

Daily Weather History Graph

Daily Weather History Graph

Search for Another Location

Airport:

Trip Planner

Search our weather history database for the weather conditions in past years. The results will help you decide how hot, cold, wet, or windy it might be!

Date:

Astronomy

Jun. 11, 2012 Rise Set
Actual Time 5:27 AM EDT 8:29 PM EDT
Civil Twilight 4:54 AM EDT 9:02 PM EDT
Nautical Twilight 4:11 AM EDT 9:45 PM EDT
Astronomical Twilight 3:22 AM EDT 10:34 PM EDT
Moon 12:47 AM EDT (6/11) 1:15 PM EDT (6/11)
Length of Visible Light 16h 08m
Length of Day
15h 02m
Waning Gibbous, 48% of the Moon is Illuminated
Jun 11
Waning Gibbous
Jun 19
New
Jun 26
First Quarter
Jul 3
Full
Jul 10
Last Quarter

Hourly Weather History & Observations

Time (EDT) Temp. Dew Point Humidity Pressure Visibility Wind Dir Wind Speed Gust Speed Precip Events Conditions
12:53 AM 70.0 °F 64.0 °F 81% 30.15 in 10.0 mi ENE 3.5 mph - N/A   Scattered Clouds
1:53 AM 66.0 °F 63.0 °F 90% 30.14 in 10.0 mi Calm Calm - N/A   Clear
2:53 AM 66.0 °F 63.0 °F 90% 30.14 in 8.0 mi Calm Calm - N/A   Clear
3:53 AM 64.0 °F 62.1 °F 93% 30.14 in 6.0 mi Calm Calm - N/A   Clear
4:53 AM 64.0 °F 62.1 °F 93% 30.16 in 5.0 mi Calm Calm - N/A   Clear
5:53 AM 64.9 °F 62.1 °F 90% 30.17 in 7.0 mi Calm Calm - N/A   Clear
6:53 AM 66.9 °F 63.0 °F 87% 30.19 in 7.0 mi Variable 4.6 mph - N/A   Clear
7:53 AM 71.1 °F 64.0 °F 78% 30.20 in 10.0 mi Calm Calm - N/A   Overcast
8:53 AM 71.1 °F 64.0 °F 78% 30.21 in 10.0 mi Variable 3.5 mph - N/A   Partly Cloudy
9:53 AM 73.0 °F 63.0 °F 71% 30.20 in 10.0 mi East 5.8 mph - N/A   Mostly Cloudy
10:44 AM 75.2 °F 64.4 °F 69% 30.21 in 10.0 mi Variable 4.6 mph - N/A   Mostly Cloudy
10:53 AM 75.9 °F 63.0 °F 64% 30.21 in 10.0 mi Variable 5.8 mph - N/A   Mostly Cloudy
11:31 AM 77.0 °F 64.4 °F 65% 30.21 in 10.0 mi East 10.4 mph - N/A   Mostly Cloudy
11:53 AM 77.0 °F 64.0 °F 64% 30.21 in 10.0 mi Variable 6.9 mph - N/A   Mostly Cloudy
12:53 PM 78.1 °F 63.0 °F 60% 30.20 in 10.0 mi SE 5.8 mph - N/A   Clear
1:53 PM 77.0 °F 63.0 °F 62% 30.19 in 10.0 mi East 6.9 mph - N/A   Mostly Cloudy
2:53 PM 75.9 °F 62.1 °F 62% 30.18 in 10.0 mi East 5.8 mph - N/A   Overcast
3:53 PM 73.9 °F 61.0 °F 64% 30.18 in 10.0 mi SE 3.5 mph - N/A   Overcast
4:53 PM 75.0 °F 57.9 °F 55% 30.17 in 9.0 mi Variable 3.5 mph - N/A   Partly Cloudy
5:53 PM 73.0 °F 57.9 °F 59% 30.17 in 10.0 mi SE 5.8 mph - N/A   Scattered Clouds
6:53 PM 71.1 °F 59.0 °F 66% 30.17 in 10.0 mi Calm Calm - N/A   Overcast
7:53 PM 70.0 °F 57.9 °F 65% 30.17 in 10.0 mi Variable 3.5 mph - N/A   Overcast
8:53 PM 66.9 °F 57.9 °F 73% 30.17 in 10.0 mi Variable 3.5 mph - N/A   Overcast
9:53 PM 66.9 °F 57.9 °F 73% 30.17 in 10.0 mi Calm Calm - N/A   Overcast
10:53 PM 66.9 °F 55.9 °F 68% 30.17 in 10.0 mi Variable 3.5 mph - N/A   Overcast
11:53 PM 66.9 °F 57.0 °F 70% 30.16 in 10.0 mi Variable 3.5 mph - N/A   Overcast